Hourly Data Report for August 04, 2022

ST-JOVITE
QUEBEC
Current Station Operator: ECCC - MSC

46°04'49.000" N
74°33'21.000" W
238.50 m
703GDKB
71376
WJT

Download Data

Hourly Data (August 2022)
Hourly Data Report for August 4, 2022
TIME
LST
Temp Definition
°C
Dew Point Definition
°C
Rel Hum Definition
%
Precip. Amount Definition
mm

Wind Dir Definition
10's deg

Wind Spd Definition
km/h
Visibility Definition
km
Stn Press Definition
kPa
Hmdx Definition


Wind Chill Definition


Weather Definition


00:00 19.5 17.8 90 0.0   0   98.38     LegendNANA
01:00 19.1 18.4 95 0.0 0 1   98.35     LegendNANA
02:00 18.9 18.2 96 0.0   0   98.33     LegendNANA
03:00 18.4 18.4 100 0.0 0 1   98.38     LegendNANA
04:00 18.2 LegendMM LegendMM 0.0   0   98.36     LegendNANA
05:00 18.3 LegendMM LegendMM 0.0   0   98.40     LegendNANA
06:00 19.1 LegendMM LegendMM 0.0 23 3   98.46     LegendNANA
07:00 19.5 LegendMM LegendMM 0.0 24 4   98.48     LegendNANA
08:00 20.6 20.2 98 0.0 23 3   98.52 28   LegendNANA
09:00 20.6 20.2 98 0.0 24 3   98.54 28   LegendNANA
10:00 21.0 20.6 97 0.0 21 2   98.58 29   LegendNANA
11:00 20.9 20.9 100 0.0 0 1   98.60 29   LegendNANA
12:00 21.0 21.0 100 0.0 20 2   98.65 29   LegendNANA
13:00 21.0 21.0 100 0.0 21 2   98.67 29   LegendNANA
14:00 21.7 21.7 100 0.0 20 3   98.66 31   LegendNANA
15:00 23.5 22.1 92 0.0 24 5   98.64 33   LegendNANA
16:00 24.1 22.4 90 0.0 21 3   98.62 34   LegendNANA
17:00 23.9 22.2 91 0.0 22 4   98.65 33   LegendNANA
18:00 23.0 22.5 97 0.0 13 1   98.67 33   LegendNANA
19:00 20.9 LegendMM LegendMM 2.0   0   98.71     LegendNANA
20:00 20.1 LegendMM LegendMM 0.0   0   98.77     LegendNANA
21:00 19.7 LegendMM LegendMM 0.0 0 1   98.78     LegendNANA
22:00 19.8 LegendMM LegendMM 2.0 0 1   98.81     LegendNANA
23:00 19.7 LegendMM LegendMM 0.0   0   98.85     LegendNANA

Notes on Data Quality.

Legend

  • E = Estimated
  • M = Missing
  • NA = Not Available*
  • [empty] = Indicates an unobserved value
Date modified: